Simultaneous Nadir Overpasses (SNOs) Predictions

Prediction of SNOs between LANDSAT-8 and NOAA-19 Satellite Orbit:

Table of predicted SNOs for the next 14.0 days since TLE Epoch: 12/26/2015
Index Date (LANDSAT-8) Time (LANDSAT-8) Lat,Lon (LANDSAT-8) SZA (LANDSAT-8 ) Date (NOAA-19) Time (NOAA-19) Lat,Lon (NOAA-19) SZA (NOAA-19 ) Distance(km) Time Diff (sec)
1 12/27/2015 14:22:18 -74.02, 147.60 82.74 12/27/2015 14:21:57 -74.02, 147.49 82.73 3.57 21
2 12/27/2015 15:11:45 73.94, -44.93 97.19 12/27/2015 15:12:52 73.94, -45.05 97.20 3.67 67
3 12/29/2015 19:06:27 -74.43, 77.49 82.43 12/29/2015 19:05:18 -74.52, 75.41 82.36 62.64 69
4 12/29/2015 19:56:01 73.99,-115.89 97.12 12/29/2015 19:56:04 74.01,-115.97 97.14 3.26 3
5 01/01/2016 00:40:17 74.03, 173.13 97.01 01/01/2016 00:39:15 74.03, 173.23 97.01 3.01 62
6 01/01/2016 01:29:46 -73.96, -19.39 83.07 01/01/2016 01:30:19 -73.95, -19.34 83.07 1.70 33
7 01/03/2016 06:14:01 -74.05, -90.26 83.17 01/03/2016 06:13:31 -74.03, -90.30 83.18 1.95 30
8 01/03/2016 07:03:28 73.96, 77.19 96.74 01/03/2016 07:04:26 73.94, 77.19 96.73 1.92 58
9 01/05/2016 11:47:43 74.04, 6.29 96.60 01/05/2016 11:47:38 74.02, 6.24 96.58 2.37 5
10 01/05/2016 12:37:24 -73.35, 172.43 84.11 01/05/2016 12:38:30 -73.38, 175.06 84.06 83.72 66
11 01/07/2016 16:31:58 74.11, -64.62 96.40 01/07/2016 16:30:50 74.11, -64.73 96.40 3.28 68
12 01/07/2016 17:21:28 -73.99, 102.75 83.72 01/07/2016 17:21:53 -74.01, 102.76 83.70 1.72 25
